Location: Poughquag
(41.6090°N, 73.6820°W)
Time: 01:45:27
(UTC-04:00)

Vanguard 1 - Pass Details

Date: 07 June 2020
Orbit: 650 x 3833 km, 34.2° (Epoch: 06 July)

Event Time Altitude Azimuth Distance (km) Brightness Sun altitude
Rises 08:11:38 0° 271° (W) 6,242 13.6 29.2°
Reaches altitude 10° 08:15:10 10° 269° (W) 5,566 13.4 29.8°
Maximum altitude 08:33:42 66° 192° (SSW) 3,895 13.5 33.3°
Drops below altitude 10° 08:56:47 10° 117° (ESE) 6,697 15.3 37.6°
Sets 09:01:34 0° 115° (ESE) 7,504 15.4 38.5°
